Wind_Speed
26 27 25 25 29 34 37 37 39 42 44 41 44 46 46 44 41 39 37 35 34 32 32 30 29 28 27 26 26 27 26 25 23 21 21 23 23 24 25 27 28 28 30 31
25 25 26 30 31 33 35 36 38 39 43 44 48 50 49 47 44 42 41 39 37 36 33 31 32 32 32 31 32 32 33 30 27 25 25 26 27 28 30 32 33 34 35 36
22 24 26 29 32 33 35 36 37 39 41 43 47 48 48 48 46 44 43 42 40 37 34 32 34 36 36 36 35 36 37 35 33 31 30 30 31 32 35 38 39 41 42 43
18 20 23 27 30 32 34 36 37 39 40 41 46 47 41 45 45 42 41 40 39 38 35 34 34 37 37 38 38 39 39 39 36 35 34 35 35 37 40 43 45 47 48 50
18 19 21 24 28 31 33 36 37 39 40 42 46 47 42 43 46 40 39 38 37 37 36 35 36 37 39 40 40 41 41 40 39 38 38 38 39 41 45 47 49 52 54 55
21 21 21 22 25 29 30 32 34 36 39 43 42 44 41 34 39 36 36 36 36 38 38 39 40 42 43 43 43 42 42 42 42 41 41 41 43 45 47 49 51 54 55 56
25 25 23 23 25 27 28 29 31 32 34 36 34 39 37 33 35 35 34 34 34 35 36 38 40 42 43 44 44 45 45 44 44 44 43 43 45 47 49 51 53 55 55 55
30 28 26 25 25 27 29 30 31 30 26 25 26 32 29 32 33 33 32 32 32 32 32 34 35 38 40 42 44 46 46 45 44 43 43 45 48 50 52 53 54 54 54 53
31 28 27 26 26 28 29 30 29 31 32 32 30 29 31 32 31 29 29 30 30 30 30 30 31 32 34 37 40 41 41 41 41 42 44 46 49 50 52 52 52 51 50 50
33 30 28 25 27 30 29 29 30 32 31 32 31 28 25 24 24 25 25 26 26 26 26 26 27 28 30 32 34 36 38 38 40 41 42 44 47 48 50 51 49 48 50 52
34 32 29 27 27 26 30 31 31 29 27 27 28 25 24 27 26 24 24 24 24 24 25 26 26 27 28 30 32 34 36 37 39 40 42 45 46 48 50 50 50 51 51 52
36 33 31 29 30 28 31 32 30 30 28 28 29 26 27 29 27 25 25 24 24 25 27 28 29 30 30 32 34 35 37 38 40 42 44 47 49 51 51 52 52 51 50 51
38 36 33 29 29 32 34 36 35 35 33 31 30 27 29 29 28 27 27 27 27 28 30 31 32 33 34 36 37 39 40 41 42 45 48 49 50 51 52 51 51 50 50 51
39 39 37 31 28 35 35 36 38 38 35 32 30 29 32 35 31 29 29 30 30 32 34 35 37 38 39 40 41 43 44 45 47 48 49 49 49 50 50 50 49 49 50 52
41 42 42 41 41 41 39 39 39 39 38 37 35 34 35 38 34 33 33 32 33 34 36 38 39 41 42 44 45 46 47 49 49 49 49 49 49 49 50 49 48 50 52 53
42 43 44 44 44 44 44 43 43 43 42 42 42 42 44 44 40 40 40 39 39 41 42 43 45 46 47 48 49 50 50 49 47 47 48 49 49 49 48 48 49 51 51 51
40 41 42 43 44 44 45 46 47 47 48 50 50 50 51 49 48 48 48 47 47 48 49 50 51 51 51 51 51 49 47 45 45 49 50 49 48 46 46 47 49 49 49 49
37 38 39 40 41 42 43 43 41 43 47 49 51 53 53 53 52 51 51 50 49 49 48 48 47 47 48 48 47 45 45 47 49 51 50 47 44 44 46 47 47 48 48 49
34 34 35 36 36 38 39 38 37 38 41 42 44 46 47 48 47 47 47 46 46 45 43 42 42 42 43 43 44 45 48 50 51 49 45 42 41 43 45 45 46 47 48 49
29 30 31 33 34 36 39 37 37 37 39 39 39 41 42 43 44 44 44 44 43 42 40 39 39 39 39 40 44 48 51 51 48 43 38 38 40 42 42 43 45 46 47 48
27 29 30 32 34 36 36 36 36 34 34 34 35 36 37 39 40 41 41 40 39 38 37 36 35 35 37 41 48 51 50 44 38 34 35 37 38 39 41 43 44 45 46 46
26 27 28 29 30 33 33 33 33 32 31 30 30 30 31 31 32 34 34 34 33 32 30 30 31 33 38 45 48 44 37 32 31 31 33 35 36 38 41 42 43 44 44 44
24 25 26 28 30 31 31 31 30 28 25 24 24 24 24 24 25 25 25 26 25 26 26 27 30 35 40 41 37 31 28 27 29 30 32 34 36 39 40 41 42 42 42 40
24 25 27 28 30 31 31 31 29 26 23 21 20 20 20 20 20 19 19 21 22 23 25 27 30 33 31 28 24 23 24 25 27 29 32 35 37 38 40 41 40 39 37 33
23 24 25 26 28 28 28 28 26 24 21 19 18 17 16 16 16 17 17 17 18 21 24 25 25 23 20 18 19 20 22 24 27 31 33 35 37 39 39 39 37 33 29 26
20 19 20 20 22 22 21 21 19 18 16 15 14 12 11 12 13 14 14 16 17 17 17 15 13 12 13 15 16 19 22 26 29 31 34 36 38 38 37 34 29 25 23 22
Wind_Direction
241 243 244 243 241 239 239 238 238 240 250 254 254 256 260 264 266 269 273 274 274 269 267 268 266 264 267 271 276 278 276 275 274 278 286 291 294 297 300 301 301 300 299 298
242 244 243 241 241 241 242 242 242 243 249 251 253 255 259 263 265 267 270 273 273 269 268 266 264 265 267 269 272 276 278 278 277 278 282 288 292 295 297 298 297 296 295 294
249 247 247 247 246 244 244 244 243 244 246 250 253 256 259 262 262 265 269 271 271 269 267 263 264 266 267 268 271 275 279 282 284 284 284 286 291 295 296 296 296 296 294 294
261 261 255 253 253 252 251 249 247 247 247 250 255 256 257 263 265 266 268 270 270 268 267 263 262 263 265 267 270 274 280 284 286 287 285 288 292 296 297 296 296 295 295 294
268 265 265 262 260 257 255 254 253 252 252 252 256 261 261 265 270 270 270 270 269 267 265 262 261 261 263 265 269 274 279 283 286 287 288 290 292 294 296 296 296 297 298 297
266 269 271 270 266 264 263 262 261 259 257 257 258 263 266 266 272 271 269 269 267 266 265 262 261 262 264 267 270 274 277 281 284 286 287 290 292 294 296 298 299 300 300 300
262 267 270 271 270 269 266 264 264 264 263 266 267 264 265 261 267 272 272 271 269 268 267 265 263 262 264 266 270 273 277 280 282 284 287 290 293 295 296 298 299 299 300 301
262 267 270 272 270 269 268 265 263 263 264 268 268 270 268 266 271 272 272 271 271 270 270 270 268 267 266 267 270 274 277 279 281 283 287 291 293 295 297 300 300 299 300 301
259 262 265 266 265 263 264 267 269 267 266 264 261 264 272 278 276 272 269 269 270 273 275 275 273 272 270 269 272 275 278 280 282 286 290 293 295 296 298 300 300 301 301 301
257 258 258 258 259 262 262 263 265 267 269 268 270 272 278 279 280 280 277 274 273 273 275 276 275 274 272 273 275 278 280 282 285 289 292 296 299 299 300 301 302 303 303 300
255 256 256 252 250 254 258 260 264 265 262 265 271 272 270 270 279 282 281 278 274 273 274 275 275 275 275 276 278 280 282 285 288 291 295 300 301 303 303 303 303 304 302 300
252 251 251 253 249 245 248 253 256 259 263 269 272 273 273 276 282 284 282 279 279 278 277 277 277 277 277 279 281 284 286 288 291 294 299 302 302 302 302 302 303 303 300 298
253 252 252 255 259 251 246 247 249 254 260 265 267 274 274 279 285 284 282 281 281 281 281 281 280 281 281 282 284 287 288 289 293 297 300 301 302 302 302 301 301 300 299 298
251 252 251 244 239 249 251 249 249 252 257 262 267 267 270 278 280 280 280 281 281 281 281 281 282 284 284 285 286 287 288 290 295 299 300 301 301 301 300 300 300 299 299 299
249 250 252 252 252 256 257 257 258 258 259 262 264 269 272 272 274 277 278 279 280 281 281 281 283 284 285 286 287 289 291 294 296 297 297 299 299 297 298 299 299 299 300 301
248 250 252 254 256 257 259 260 262 263 265 267 268 271 270 271 274 277 279 280 281 282 284 285 286 287 287 288 289 292 295 296 294 293 293 292 293 294 296 297 299 300 301 302
249 251 253 255 257 259 260 259 260 263 264 265 266 267 270 274 276 277 278 280 281 282 283 285 286 286 287 288 290 294 294 288 287 287 286 286 289 293 296 298 300 301 302 304
250 251 254 256 258 260 261 262 263 262 262 263 265 267 269 271 272 274 275 277 278 279 280 281 281 282 283 286 288 288 283 279 281 281 282 286 291 295 298 299 301 304 306 308
251 253 255 257 260 263 264 265 266 265 265 265 266 267 269 271 272 273 274 275 276 277 278 278 278 278 280 280 280 276 274 275 277 278 283 289 295 298 300 302 305 308 310 311
252 254 257 259 262 265 267 269 269 269 269 269 268 268 269 270 271 272 273 274 275 277 277 277 277 277 276 273 269 267 269 273 277 282 289 296 298 300 304 307 309 310 311 312
256 258 259 262 264 266 269 271 272 271 270 271 269 269 268 268 269 270 271 272 273 274 275 275 274 272 269 264 262 263 267 273 282 291 297 299 302 305 308 310 311 312 313 315
257 258 259 261 263 266 269 270 271 272 272 272 271 271 269 268 268 268 269 270 271 271 272 271 268 264 260 257 258 264 273 285 295 300 301 304 307 309 311 312 313 315 317 318
256 258 261 262 265 268 269 270 270 271 270 269 269 268 267 266 266 267 267 268 267 267 266 264 261 257 255 257 263 277 290 300 302 304 307 310 311 313 313 315 316 318 319 320
262 264 267 268 269 269 269 268 268 267 265 263 263 264 264 264 263 264 264 263 261 260 259 258 257 256 260 269 284 297 302 305 308 311 313 314 315 315 317 318 320 320 321 323
270 271 271 271 271 270 269 268 265 262 260 258 260 262 259 257 257 256 256 260 260 259 259 258 260 266 278 291 300 306 311 314 315 316 317 317 317 319 320 321 322 324 325 327
274 274 274 273 272 271 267 264 260 256 252 250 251 250 245 245 249 250 254 259 261 262 260 263 275 291 300 307 314 319 320 320 320 320 320 320 321 322 324 325 327 329 331 332
Height
5836 5840 5842 5845 5846 5848 5849 5852 5855 5858 5855 5858 5858 5858 5858 5859 5861 5863 5864 5864 5864 5863 5862 5861 5860 5860 5860 5859 5857 5855 5853 5851 5849 5847 5845 5843 5841 5839 5837 5834 5832 5829 5826 5823
5832 5834 5836 5836 5838 5840 5842 5845 5848 5851 5850 5851 5850 5850 5851 5851 5854 5855 5856 5857 5858 5857 5856 5856 5855 5854 5854 5853 5851 5849 5846 5843 5841 5839 5837 5836 5834 5832 5830 5827 5824 5822 5818 5815
5826 5829 5829 5831 5832 5834 5835 5838 5841 5842 5842 5842 5842 5843 5845 5843 5846 5847 5849 5850 5850 5850 5850 5850 5849 5848 5847 5846 5844 5842 5839 5836 5833 5831 5829 5827 5825 5823 5821 5818 5815 5812 5809 5805
5820 5822 5823 5824 5826 5827 5829 5831 5832 5833 5835 5835 5833 5834 5838 5835 5835 5839 5841 5842 5842 5842 5842 5843 5842 5841 5840 5839 5837 5834 5831 5829 5826 5823 5819 5817 5815 5814 5811 5808 5805 5801 5797 5794
5815 5816 5816 5818 5820 5820 5821 5822 5824 5825 5826 5827 5825 5825 5831 5827 5827 5831 5833 5833 5833 5834 5834 5835 5835 5834 5833 5831 5829 5826 5824 5821 5818 5814 5811 5809 5807 5804 5801 5798 5794 5790 5786 5782
5809 5810 5811 5812 5813 5813 5815 5816 5817 5817 5818 5817 5820 5819 5821 5823 5819 5823 5824 5825 5825 5826 5826 5827 5827 5826 5825 5823 5821 5818 5816 5813 5809 5806 5803 5801 5798 5795 5791 5787 5783 5778 5773 5769
5802 5803 5804 5805 5806 5806 5808 5810 5810 5810 5810 5811 5813 5810 5813 5813 5812 5814 5815 5816 5816 5817 5818 5818 5818 5818 5816 5814 5812 5809 5807 5804 5801 5798 5795 5792 5789 5785 5781 5776 5772 5766 5761 5755
5795 5797 5798 5799 5800 5800 5800 5802 5805 5806 5808 5808 5806 5802 5806 5803 5803 5805 5807 5807 5808 5808 5808 5808 5808 5808 5806 5805 5802 5800 5798 5795 5792 5789 5786 5783 5779 5775 5770 5765 5760 5754 5748 5742
5789 5791 5792 5792 5792 5793 5794 5795 5797 5797 5797 5798 5799 5799 5797 5795 5796 5798 5799 5799 5800 5800 5800 5799 5798 5797 5796 5794 5793 5790 5788 5785 5783 5780 5777 5773 5768 5764 5759 5754 5748 5742 5736 5729
5780 5783 5785 5786 5786 5786 5788 5789 5790 5789 5790 5790 5792 5793 5795 5792 5791 5791 5791 5791 5791 5792 5791 5790 5789 5788 5787 5785 5783 5781 5779 5776 5773 5770 5766 5762 5757 5752 5747 5741 5736 5730 5724 5717
5771 5775 5777 5779 5780 5782 5781 5782 5782 5783 5785 5785 5786 5790 5787 5784 5784 5784 5784 5784 5784 5784 5783 5782 5781 5779 5778 5776 5775 5772 5769 5766 5763 5759 5755 5751 5745 5740 5735 5729 5723 5718 5711 5704
5761 5766 5769 5771 5772 5773 5774 5775 5777 5777 5778 5778 5778 5783 5778 5776 5776 5777 5777 5776 5776 5776 5775 5774 5773 5771 5769 5768 5765 5763 5760 5756 5753 5749 5744 5740 5734 5729 5723 5717 5711 5704 5698 5692
5752 5756 5761 5763 5766 5765 5765 5767 5769 5770 5771 5771 5771 5776 5768 5768 5769 5769 5769 5769 5769 5768 5768 5766 5764 5762 5760 5758 5756 5753 5749 5746 5742 5738 5733 5728 5722 5716 5710 5704 5698 5692 5686 5679
5743 5746 5751 5756 5756 5753 5756 5758 5760 5762 5764 5764 5764 5765 5762 5760 5761 5761 5761 5761 5761 5760 5759 5757 5755 5753 5751 5748 5745 5742 5739 5735 5731 5726 5721 5715 5710 5704 5698 5692 5686 5680 5674 5668
5733 5736 5738 5741 5744 5746 5747 5749 5750 5752 5753 5754 5755 5754 5754 5750 5752 5752 5752 5752 5752 5751 5749 5747 5745 5743 5741 5738 5735 5731 5727 5723 5718 5713 5708 5702 5697 5692 5687 5681 5675 5669 5662 5655
5723 5726 5728 5730 5733 5735 5736 5739 5740 5741 5742 5742 5743 5743 5741 5739 5741 5742 5742 5742 5741 5740 5738 5736 5734 5732 5729 5726 5722 5719 5714 5710 5705 5700 5695 5691 5686 5681 5675 5670 5664 5657 5650 5643
5714 5717 5719 5720 5722 5723 5726 5728 5729 5730 5731 5731 5731 5730 5727 5729 5730 5730 5730 5730 5730 5729 5727 5725 5722 5719 5716 5713 5709 5706 5702 5697 5693 5689 5684 5679 5674 5669 5665 5659 5652 5645 5638 5630
5705 5707 5708 5710 5712 5713 5715 5715 5718 5719 5718 5717 5717 5717 5717 5717 5718 5718 5718 5717 5716 5715 5714 5713 5711 5708 5704 5701 5698 5695 5691 5686 5682 5678 5673 5668 5663 5659 5653 5647 5640 5633 5625 5618
5695 5697 5699 5701 5701 5702 5702 5704 5706 5706 5705 5706 5705 5705 5704 5704 5705 5704 5704 5703 5703 5702 5702 5701 5699 5697 5694 5691 5688 5684 5680 5676 5671 5667 5662 5657 5653 5648 5642 5635 5628 5621 5613 5606
5686 5688 5691 5691 5692 5693 5692 5694 5694 5695 5694 5694 5693 5693 5693 5693 5693 5692 5691 5690 5690 5690 5689 5689 5687 5686 5684 5682 5678 5674 5670 5666 5661 5656 5652 5647 5642 5637 5630 5623 5616 5609 5602 5595
5679 5680 5681 5682 5682 5682 5683 5683 5683 5685 5683 5682 5681 5681 5681 5681 5681 5680 5679 5679 5679 5679 5678 5678 5677 5676 5674 5672 5669 5664 5660 5655 5651 5646 5642 5637 5632 5626 5619 5613 5606 5599 5592 5585
5670 5671 5672 5673 5673 5674 5673 5672 5673 5673 5672 5671 5671 5671 5670 5670 5670 5669 5669 5669 5669 5669 5669 5668 5667 5666 5665 5662 5658 5654 5650 5646 5642 5638 5633 5628 5622 5616 5609 5603 5596 5589 5582 5575
5662 5663 5663 5665 5666 5664 5663 5663 5663 5663 5663 5663 5663 5662 5662 5662 5662 5661 5661 5661 5661 5660 5660 5660 5660 5658 5656 5653 5649 5646 5642 5638 5635 5630 5625 5619 5613 5606 5600 5593 5587 5580 5573 5566
5654 5654 5655 5655 5654 5654 5653 5653 5654 5655 5655 5656 5656 5656 5656 5656 5656 5655 5655 5654 5654 5654 5654 5653 5653 5651 5648 5645 5642 5639 5636 5632 5628 5623 5617 5611 5605 5598 5591 5585 5578 5571 5564 5558
5646 5646 5646 5645 5644 5644 5643 5644 5645 5646 5648 5649 5649 5650 5650 5650 5650 5650 5650 5650 5649 5649 5648 5648 5647 5645 5642 5640 5638 5634 5630 5626 5621 5615 5609 5603 5597 5590 5583 5576 5569 5563 5558 5552
5639 5639 5638 5637 5636 5636 5636 5636 5637 5639 5641 5643 5644 5645 5645 5646 5646 5646 5646 5646 5646 5645 5644 5643 5642 5641 5639 5636 5633 5629 5625 5620 5615 5609 5603 5596 5589 5582 5575 5569 5563 5557 5552 5547